Weather History for KINW - November, 2011

Change the Weather History Date:

Thursday, November 24, 2011

  Actual Average Record
Temperature  
Mean Temperature 49 °F 40 °F  
Max Temperature 67 °F 56 °F 77 °F (1981)
Min Temperature 31 °F 25 °F 2 °F (1931)
Degree Days  
Heating Degree Days 16 25  
Month to date heating degree days 488 474  
Since 1 July heating degree days 746 780  
Cooling Degree Days 0 0  
Month to date cooling degree days 0 0  
Year to date cooling degree days 1347 1208  
Moisture  
Dew Point 25 °F    
Average Humidity 48    
Maximum Humidity 82    
Minimum Humidity 13    
Precipitation  
Precipitation 0.00 in 0.02 in 0.74 in (1978)
Month to date precipitation 0.67 0.41  
Year to date precipitation 6.15 6.35  
Sea Level Pressure  
Sea Level Pressure 30.02 in    
Wind  
Wind Speed 6 mph (SSE)    
Max Wind Speed 26 mph    
Max Gust Speed 33 mph    
Visibility 10 miles    
Events      
T = Trace of Precipitation, MM = Missing Value Source: NWS Daily Summary

Daily Weather History Graph

Daily Weather History Graph

Search for Another Location

Airport or City:

Trip Planner

Search our weather history database for the weather conditions in past years. The results will help you decide how hot, cold, wet, or windy it might be!

Date:

Astronomy

Nov. 24, 2011 Rise Set
Actual Time 7:05 AM MST 5:12 PM MST
Civil Twilight 6:38 AM MST 5:40 PM MST
Nautical Twilight 6:07 AM MST 6:11 PM MST
Astronomical Twilight 5:37 AM MST 6:41 PM MST
Moon 6:27 AM MST (11/24) 4:48 PM MST (11/24)
Length of Visible Light 11h 01m
Length of Day
10h 06m
Waning Crescent, 0% of the Moon is Illuminated
Nov 24
Waning Crescent
Nov 24
New
Dec 2
First Quarter
Dec 10
Full
Dec 17
Last Quarter

Hourly Weather History & Observations

Time (MST) Temp. Windchill Dew Point Humidity Pressure Visibility Wind Dir Wind Speed Gust Speed Precip Events Conditions
12:56 AM 33.1 °F 30.0 °F 28.0 °F 82% 30.10 in 10.0 mi SE 3.5 mph - N/A   Clear
1:56 AM 32.0 °F 27.5 °F 27.0 °F 82% 30.07 in 10.0 mi ESE 4.6 mph - N/A   Clear
2:56 AM 34.0 °F 28.8 °F 25.0 °F 70% 30.06 in 10.0 mi ESE 5.8 mph - N/A   Clear
3:56 AM 32.0 °F - 25.0 °F 75% 30.04 in 10.0 mi Calm Calm - N/A   Clear
4:56 AM 34.0 °F 29.8 °F 26.1 °F 73% 30.03 in 10.0 mi ESE 4.6 mph - N/A   Clear
5:56 AM 35.1 °F 29.3 °F 25.0 °F 67% 30.07 in 10.0 mi ESE 6.9 mph - N/A   Clear
6:56 AM 33.1 °F 26.1 °F 24.1 °F 70% 30.10 in 10.0 mi ESE 8.1 mph - N/A   Clear
7:56 AM 35.1 °F 28.6 °F 24.1 °F 64% 30.12 in 10.0 mi ESE 8.1 mph - N/A   Clear
8:56 AM 41.0 °F 33.5 °F 24.8 °F 53% 30.11 in 10.0 mi ESE 13.8 mph - N/A   Clear
9:56 AM 42.8 °F 36.6 °F 24.8 °F 49% 30.10 in 10.0 mi ESE 11.5 mph - N/A   Clear
10:56 AM 52.0 °F - 24.1 °F 34% 30.06 in 10.0 mi East 11.5 mph - N/A   Clear
11:56 AM 57.2 °F - 24.8 °F 29% 30.07 in 10.0 mi Calm Calm - N/A   Clear
12:56 PM 62.1 °F - 19.0 °F 19% 29.95 in 10.0 mi Calm Calm - N/A   Clear
1:56 PM 64.9 °F - 12.9 °F 13% 29.94 in 10.0 mi SSW 13.8 mph - N/A   Scattered Clouds
2:56 PM 63.0 °F - 21.0 °F 20% 29.91 in 10.0 mi SSW 11.5 mph 19.6 mph N/A   Clear
3:56 PM 57.2 °F - 24.8 °F 29% 30.00 in 10.0 mi WSW 12.7 mph - N/A   Clear
4:56 PM 55.0 °F - 23.0 °F 29% 29.92 in 10.0 mi WNW 3.5 mph - N/A   Clear
5:56 PM 54.0 °F - 24.1 °F 31% 29.91 in 10.0 mi NNW 3.5 mph - N/A   Clear
6:56 PM 50.0 °F - 30.0 °F 46% 29.95 in 10.0 mi West 10.4 mph - N/A   Overcast
7:56 PM 51.1 °F - 28.0 °F 41% 29.96 in 10.0 mi West 8.1 mph - N/A   Overcast
8:56 PM 46.9 °F - 28.0 °F 48% 29.95 in 10.0 mi Calm Calm - N/A   Overcast
9:56 PM 44.6 °F - 26.6 °F 49% 30.02 in 10.0 mi Calm Calm - N/A   Scattered Clouds
10:56 PM 39.0 °F - 26.1 °F 60% 29.99 in 10.0 mi Calm Calm - N/A   Mostly Cloudy
11:56 PM 44.1 °F 40.8 °F 30.0 °F 58% 29.95 in 10.0 mi WSW 5.8 mph - N/A   Overcast